Theta_e
313 320 325 323 320 321 324 329 331 331 332 334 335 335 337 340 355 373 357 355 358 358 355 344 342 343 350 351 346 341 339 335 331 329 332 339 347 349 336 336 339 340 342 344 341 341 336 329 327
324 326 327 321 318 319 323 327 330 332 333 333 333 333 335 338 355 356 355 358 358 358 352 347 343 342 344 349 347 340 341 334 329 331 334 340 345 345 338 339 341 342 343 345 343 341 331 326 325
324 331 324 321 320 319 320 325 329 331 332 333 332 333 333 342 353 354 356 360 360 358 355 348 343 342 342 347 347 341 340 332 329 331 335 340 344 344 341 340 341 343 344 343 342 340 330 325 325
321 324 322 321 321 321 321 322 323 325 328 333 333 332 333 352 353 355 356 360 360 358 356 346 342 341 342 346 347 344 337 330 329 330 336 341 350 345 344 344 344 341 338 334 329 326 325 326 327
323 324 322 323 322 322 323 324 324 324 325 330 333 333 337 349 353 354 355 359 360 357 358 346 341 340 343 346 345 344 333 329 329 329 335 344 351 347 347 346 344 342 337 330 329 328 326 326 327
323 323 324 323 323 324 324 324 324 324 325 326 329 333 338 346 350 353 354 359 359 358 358 345 342 341 343 345 345 344 332 330 329 330 336 343 345 346 344 340 339 340 338 336 335 331 326 326 327
321 322 322 321 321 323 324 326 325 324 324 324 327 328 340 346 349 353 355 357 359 359 357 347 350 351 344 345 346 341 333 333 329 331 336 337 341 342 340 338 338 336 335 333 330 328 325 327 328
318 320 321 322 321 321 323 324 326 326 324 326 325 324 334 351 350 353 354 357 359 359 356 351 354 354 346 348 346 339 336 336 331 331 334 336 338 339 338 338 336 335 334 329 326 325 324 329 331
317 318 320 320 321 322 323 323 325 326 325 325 324 324 341 348 349 352 355 357 358 359 355 351 352 353 354 352 349 342 342 340 335 333 335 336 342 339 337 338 341 329 328 327 325 323 323 329 330
314 317 318 319 320 320 321 322 323 324 324 323 323 324 330 340 345 350 357 357 357 357 352 349 347 349 350 352 351 348 348 343 340 339 335 335 344 339 343 341 341 328 328 326 325 325 328 329 328
313 315 316 317 318 319 319 319 320 320 323 323 322 323 324 328 341 345 350 356 358 356 352 348 345 344 344 348 348 349 347 345 342 342 332 340 343 340 341 343 337 329 330 331 329 325 326 332 338
314 313 313 314 316 316 317 317 318 320 323 324 324 323 323 324 330 344 348 352 357 355 351 347 344 342 343 345 343 343 341 339 340 343 332 338 343 342 342 343 337 338 338 339 338 337 339 344 342
315 314 315 315 314 314 314 315 316 319 322 323 323 324 323 324 325 335 342 348 356 355 352 348 345 342 345 339 341 340 338 337 341 344 333 341 345 344 339 342 337 339 340 337 340 337 344 346 345
316 316 316 315 314 314 314 314 314 317 321 322 321 323 324 324 325 328 340 343 357 357 352 349 346 346 345 340 342 339 339 337 340 343 337 346 344 343 342 342 340 340 337 338 339 340 344 343 346
316 316 316 316 315 315 314 314 313 315 317 320 321 322 323 324 324 326 326 340 347 356 356 351 348 350 346 342 345 343 341 340 342 344 339 346 343 343 341 341 339 338 337 338 344 346 345 344 347
316 316 315 315 315 315 314 313 314 314 315 316 317 319 322 324 324 324 325 326 340 357 355 353 350 350 348 348 350 347 347 346 347 346 345 344 341 345 339 340 339 337 336 342 341 344 348 347 346
317 318 317 316 316 315 314 313 314 315 316 317 317 318 319 322 325 325 324 326 344 359 350 352 352 352 350 350 351 351 349 350 348 349 348 346 345 346 340 339 337 336 338 342 349 349 348 344 342
318 318 318 318 318 316 315 314 314 315 315 316 317 318 318 320 322 324 326 324 331 360 352 350 350 354 351 352 351 353 349 351 349 350 350 348 348 345 342 338 341 340 343 349 348 345 344 341 337
319 320 319 319 318 317 316 316 316 316 315 315 317 318 319 319 321 322 325 324 335 360 357 355 354 353 354 354 353 353 352 352 348 347 351 349 348 344 338 344 347 346 347 348 347 347 343 338 333
320 320 320 318 318 318 318 319 316 316 316 315 317 318 320 320 320 323 326 327 335 361 358 356 355 353 354 354 353 354 350 351 347 352 351 348 346 343 340 350 348 346 345 344 344 343 339 337 333
320 320 320 319 319 319 318 320 320 316 318 318 316 318 320 321 322 325 328 328 327 361 359 355 354 354 354 353 353 353 347 347 349 349 348 345 345 344 344 349 346 344 343 339 334 333 331 333 332
319 318 319 321 320 320 320 324 320 319 319 319 319 317 318 320 323 325 328 331 331 360 359 356 356 354 355 352 356 353 349 349 351 348 348 346 347 348 348 346 343 338 336 335 334 332 331 330 333
320 319 320 322 322 323 324 321 321 319 321 321 320 318 318 319 322 324 327 328 343 360 359 358 357 356 356 355 352 350 349 350 349 350 350 349 347 346 342 340 337 338 335 333 330 330 329 326 324
318 318 319 322 323 329 321 321 322 320 321 319 321 319 318 318 320 322 325 327 354 360 359 359 357 355 354 351 352 350 351 350 351 349 346 344 341 341 338 336 334 335 333 332 329 326 325 325 323
322 323 330 330 330 327 319 320 321 320 320 320 320 319 319 318 319 321 323 328 348 357 357 356 355 353 351 352 352 350 348 348 348 344 341 340 337 337 334 333 334 332 330 328 326 324 323 323 323
324 325 325 326 329 324 319 327 323 321 321 321 319 319 321 319 318 320 323 327 357 358 356 355 352 352 346 352 350 348 348 347 345 340 340 340 334 334 333 333 331 328 326 322 324 324 322 322 322
321 325 321 324 322 327 321 319 322 320 320 319 318 319 320 321 319 320 323 326 355 356 355 354 352 351 350 352 349 348 347 345 341 341 338 335 333 332 331 328 325 324 324 324 323 323 321 320 320
318 318 327 324 324 323 320 321 318 319 320 320 321 320 320 321 320 320 322 327 354 355 354 353 352 351 351 350 348 349 344 341 341 337 334 333 332 330 327 325 323 323 322 321 321 321 321 321 322
320 323 323 321 322 325 323 318 318 320 319 319 320 321 319 320 320 319 322 344 355 354 354 353 353 353 350 349 349 345 341 340 337 336 334 332 329 327 325 323 322 322 321 321 318 320 321 321 320
317 322 321 325 319 321 322 324 318 319 318 317 319 321 320 319 320 320 339 347 345 353 351 351 352 350 348 348 342 340 338 336 336 333 331 328 326 324 323 321 320 321 321 320 320 321 321 321 319
Wind_Speed
11 11 11 13 6 8 17 21 21 24 24 11 8 9 15 12 10 5 4 3 34 35 32 32 27 23 22 21 21 21 20 19 19 21 23 23 21 17 19 20 19 17 15 13 11 9 7 6 6
11 15 15 6 9 14 16 21 24 21 20 2 5 5 11 11 20 19 18 21 33 35 35 31 28 24 23 23 22 22 20 20 21 21 23 23 20 18 18 18 16 14 13 10 8 7 6 6 6
11 16 8 6 14 17 18 21 21 21 20 9 4 8 12 6 20 11 28 27 30 30 30 31 29 24 23 23 23 23 21 21 21 22 22 22 19 18 17 16 14 12 11 9 7 5 5 5 5
9 8 7 12 22 21 27 22 28 28 26 12 7 10 6 12 6 18 25 29 25 25 25 31 29 26 23 24 24 24 22 22 21 22 22 20 18 18 16 14 12 11 10 8 6 5 4 4 3
16 8 13 17 25 26 23 23 22 20 24 9 9 14 4 11 15 21 23 27 25 25 24 29 28 27 24 24 25 24 23 22 20 21 22 20 18 17 14 12 11 9 8 7 6 5 4 3 2
9 10 16 19 25 26 23 23 25 25 20 12 16 13 3 17 16 20 22 25 24 28 25 29 28 26 25 25 25 24 23 22 20 21 21 19 18 16 13 11 10 8 7 5 5 4 3 3 2
16 14 21 25 25 25 23 23 22 22 22 15 15 19 7 17 23 20 22 25 27 30 27 30 27 25 25 26 26 24 23 21 20 20 20 20 17 15 12 10 8 7 6 5 5 5 4 4 3
15 15 27 25 22 28 23 26 24 21 24 15 14 19 6 15 18 19 19 23 28 29 24 27 25 23 27 22 25 24 22 20 20 20 20 19 17 14 12 9 7 6 6 6 6 5 5 5 3
18 16 19 27 27 25 24 25 23 25 16 14 16 20 9 17 11 17 20 23 29 30 24 26 23 24 23 24 22 24 22 20 19 20 20 19 14 13 9 8 7 5 6 6 6 6 6 5 5
18 17 26 23 24 24 25 26 28 26 14 11 14 21 12 21 12 8 15 19 27 28 25 27 26 25 25 22 25 23 21 21 19 19 20 18 16 12 12 10 9 7 7 6 6 5 5 7 8
18 20 22 24 24 25 27 28 29 26 25 13 16 22 23 15 16 12 17 24 29 31 29 28 29 30 28 26 25 24 21 20 19 19 21 18 16 14 13 9 9 9 9 7 6 6 6 6 10
18 18 20 23 22 23 25 26 28 26 24 17 13 17 21 19 11 12 16 23 30 37 36 36 32 34 30 29 28 25 25 23 21 21 22 19 15 16 16 11 11 9 12 10 11 9 5 3 3
16 16 16 15 17 20 21 24 26 27 26 20 20 21 15 16 16 22 19 20 30 38 44 45 42 41 37 33 28 27 25 24 23 22 22 14 14 14 15 15 15 10 17 8 13 7 5 4 9
17 19 19 19 15 16 19 23 23 27 24 21 22 24 19 20 13 14 19 22 23 22 45 48 47 40 40 36 33 31 27 26 25 20 22 16 17 15 12 5 11 5 8 11 9 13 8 9 2
15 17 17 19 17 19 19 22 25 25 26 24 24 23 22 21 19 9 14 16 21 38 11 44 43 33 38 32 33 31 29 26 25 24 20 15 17 15 12 8 9 6 7 8 3 2 5 9 4
20 20 18 18 21 23 21 24 22 22 24 27 28 26 24 20 21 24 19 23 23 32 44 13 39 33 33 30 28 30 27 25 22 22 22 18 18 12 16 11 12 9 10 10 10 12 7 5 5
18 19 22 23 22 17 17 26 22 20 22 24 27 25 25 20 18 24 30 24 13 32 33 23 31 34 31 29 24 23 26 24 23 25 23 20 16 12 14 12 12 9 7 8 7 4 9 6 6
19 17 20 19 18 10 17 20 19 21 21 21 24 25 27 25 23 26 28 30 21 28 45 55 45 42 39 30 26 20 27 21 21 24 26 23 17 14 14 10 9 13 9 5 6 4 6 11 6
21 23 25 24 24 20 18 19 20 23 18 20 20 24 26 28 24 29 27 31 19 29 37 43 42 42 38 33 28 24 25 18 20 17 26 24 17 15 14 6 13 13 8 4 6 8 7 10 8
23 25 26 26 23 23 21 28 22 17 21 20 23 22 19 24 27 24 25 23 18 27 31 29 36 37 33 30 28 27 26 20 21 24 22 19 15 16 14 8 10 9 9 8 9 10 10 8 12
22 24 24 25 24 27 24 27 25 22 22 24 20 23 22 21 22 18 17 26 26 28 28 31 35 35 34 36 32 27 29 24 22 25 20 19 16 14 14 11 10 10 9 9 10 10 8 5 6
25 22 21 24 22 18 18 19 21 23 20 21 26 22 23 23 19 19 14 14 26 32 31 33 35 38 36 38 26 23 23 22 24 22 19 18 17 15 14 13 11 10 9 8 5 6 3 5 7
26 23 16 17 20 17 25 13 23 17 24 25 20 22 23 24 18 15 18 17 29 37 36 37 36 37 36 38 30 30 26 20 26 25 23 19 16 15 14 12 13 11 10 8 7 6 8 7 6
25 24 21 15 13 15 20 16 23 21 25 21 26 23 27 25 22 20 20 26 30 39 37 35 37 38 37 36 31 31 35 31 26 25 24 21 19 18 17 15 16 13 12 11 9 9 10 9 7
14 14 4 9 9 16 13 17 20 23 23 30 20 22 28 27 26 25 24 18 25 35 34 34 34 39 36 32 33 32 36 34 28 28 27 24 22 25 20 18 18 14 14 11 11 12 12 10 10
7 8 6 6 4 8 18 7 13 22 25 23 19 25 22 29 27 26 22 20 26 34 36 34 37 37 33 31 27 31 32 31 29 30 27 21 26 24 21 18 17 15 13 13 13 12 11 9 9
4 7 3 6 11 14 18 23 14 22 18 19 19 8 22 23 27 27 24 23 36 36 36 39 40 42 45 30 32 31 31 32 32 27 24 26 27 25 19 17 17 15 15 14 11 12 11 9 8
14 9 5 4 6 16 13 17 12 12 9 13 18 15 19 12 26 24 25 22 39 38 38 40 41 43 41 38 36 34 37 37 32 30 28 25 25 24 21 20 17 17 15 13 12 13 11 10 11
4 5 8 8 8 7 13 10 6 7 8 2 19 20 16 15 16 25 22 16 36 41 42 45 45 42 39 37 34 37 38 33 32 30 30 28 27 24 22 20 18 16 15 13 13 13 10 9 9
18 15 15 6 9 12 13 13 12 7 8 5 16 18 14 17 20 21 15 16 18 32 39 45 46 42 41 36 38 39 36 34 32 31 31 29 26 23 21 20 18 16 15 13 13 12 9 11 9
Wind_Direction
270 268 262 263 244 229 248 244 247 265 279 281 306 330 322 359 115 141 122 134 134 143 155 157 159 164 169 169 167 163 159 159 157 154 149 146 142 139 139 140 140 138 135 130 119 111 111 107 99
272 257 243 271 239 242 244 242 253 252 252 283 10 283 287 298 100 143 169 134 137 145 155 161 160 168 172 173 172 167 163 164 162 157 154 151 147 144 143 143 143 138 134 134 125 114 108 106 101
267 254 248 223 238 242 254 257 253 233 257 225 158 265 268 77 118 112 130 138 135 144 150 163 161 169 174 175 175 171 167 168 165 159 157 154 149 147 146 145 144 139 136 138 139 129 114 112 109
246 229 252 255 246 236 241 263 281 290 298 193 181 248 171 72 75 117 135 138 137 147 153 163 164 167 174 176 176 174 170 170 167 163 160 157 149 149 147 144 142 139 139 140 140 129 125 119 113
242 265 235 243 245 250 261 265 255 268 272 273 201 237 212 106 117 123 139 142 146 150 162 165 167 166 172 174 176 176 171 172 169 167 164 160 153 154 149 145 144 145 145 147 139 132 132 126 127
240 230 248 242 249 259 257 248 267 276 275 282 269 230 208 125 130 139 148 150 152 151 161 168 169 168 169 173 179 177 173 173 171 168 167 164 161 161 156 150 150 154 155 160 155 150 145 157 170
243 238 242 251 257 263 259 249 249 246 261 255 270 279 175 160 139 144 151 154 150 145 150 166 165 168 168 172 180 178 176 174 173 170 171 168 167 168 163 154 156 159 167 167 173 170 170 187 193
252 252 260 255 255 260 267 275 276 243 250 235 248 258 249 83 123 135 152 155 152 141 148 159 160 162 164 169 180 177 177 176 176 174 173 171 168 170 168 165 171 174 185 180 178 180 189 195 204
246 251 252 253 257 268 277 276 277 281 264 208 253 265 104 108 135 148 156 165 154 147 152 159 161 158 157 163 173 178 176 178 177 177 175 170 164 166 173 166 190 195 189 180 182 188 197 201 213
245 244 252 258 269 281 285 283 287 280 258 214 249 266 225 144 151 182 165 169 159 150 156 162 163 161 158 158 171 170 172 176 171 172 173 168 173 169 174 187 191 196 183 177 185 187 198 226 244
240 251 265 267 280 288 297 301 302 300 283 196 228 245 262 183 151 193 202 182 168 159 158 167 166 167 164 160 162 160 168 170 171 171 173 175 178 171 173 189 197 195 188 179 191 199 226 239 292
245 257 267 275 277 283 286 296 294 291 278 307 257 231 257 252 181 189 214 204 169 159 164 165 168 169 163 171 160 162 163 170 170 178 177 181 194 169 183 198 183 183 204 196 225 227 217 199 262
275 276 281 283 282 280 278 272 278 284 291 306 312 302 284 269 212 183 216 228 170 167 166 166 170 173 167 162 161 162 166 165 174 184 183 190 169 183 198 209 189 182 202 183 203 236 203 244 224
291 297 290 291 287 280 277 279 269 271 284 289 295 294 287 286 279 180 187 232 171 191 167 163 164 174 163 161 160 164 166 170 176 179 187 174 189 182 201 210 221 200 226 204 210 222 205 243 278
292 281 278 265 261 260 263 264 264 269 264 272 272 277 275 275 288 243 240 239 239 181 227 153 157 165 155 164 162 162 167 172 174 175 178 185 195 192 184 203 220 240 223 258 252 336 278 262 217
278 272 271 268 253 244 232 258 253 251 261 261 261 270 271 255 265 278 253 246 252 173 179 220 151 158 160 163 162 157 161 168 172 170 174 184 188 188 193 198 209 229 220 218 249 246 166 154 91
255 253 252 257 245 245 243 241 242 246 242 243 245 252 263 262 248 240 257 251 222 161 149 134 166 158 165 165 160 160 165 173 177 168 170 176 190 194 191 199 201 215 212 241 180 96 100 116 88
272 283 286 284 292 293 258 258 253 251 256 249 239 235 236 253 248 252 232 242 229 156 146 165 178 163 166 165 164 172 172 181 179 170 168 170 181 188 193 207 187 177 213 209 180 169 87 69 38
274 273 277 281 288 278 260 256 267 276 242 258 243 235 236 226 240 237 236 225 215 160 165 165 166 160 160 163 170 168 167 190 170 173 163 161 175 181 195 229 176 184 188 132 112 100 87 55 9
276 279 276 278 280 278 272 281 257 256 283 248 272 246 254 215 225 226 219 212 200 163 164 167 153 169 163 166 173 173 171 181 165 147 148 159 170 179 193 178 160 163 143 139 123 122 104 55 29
253 259 271 277 282 279 278 264 263 253 256 258 242 265 265 228 216 225 212 195 208 163 168 167 166 172 173 171 183 176 163 172 149 147 147 158 168 168 175 142 141 148 143 145 116 103 91 66 354
276 267 273 295 269 265 266 273 264 271 263 244 248 241 255 267 208 215 219 204 184 168 172 170 174 173 178 174 185 175 163 162 144 145 152 152 159 150 145 149 156 120 115 113 137 139 95 32 13
277 290 274 283 272 277 257 265 271 247 250 252 255 225 242 252 251 228 224 213 177 167 174 177 176 171 176 177 176 172 159 149 144 136 136 144 146 152 146 154 132 120 122 129 116 98 89 78 64
267 264 264 256 269 260 255 248 263 256 256 249 242 219 222 232 240 241 240 211 174 170 174 173 172 176 177 177 178 170 149 135 130 128 131 138 129 135 138 136 124 123 120 113 125 104 106 93 78
337 283 267 231 216 248 270 249 246 260 251 249 228 240 212 211 221 227 237 223 182 168 172 170 169 173 175 183 167 163 154 144 138 137 142 133 134 128 130 130 122 130 117 114 115 111 90 82 70
304 268 226 283 248 293 287 259 282 265 245 261 251 227 214 200 206 219 224 226 161 168 170 165 167 160 168 181 147 149 144 136 135 143 146 147 138 133 124 130 126 118 114 109 99 92 82 84 66
248 236 300 285 276 272 261 266 238 271 270 250 252 242 257 198 197 209 214 222 165 166 167 164 165 162 170 153 142 141 139 133 134 144 135 129 136 133 132 125 119 115 111 109 102 95 85 71 66
246 255 216 196 258 264 256 273 256 231 210 343 321 215 252 257 194 201 213 215 161 164 167 167 171 165 162 149 151 144 131 134 140 133 129 131 129 130 125 122 122 113 108 99 86 82 79 79 75
228 218 211 252 244 269 286 287 23 349 32 310 298 310 222 243 263 196 209 181 162 165 166 173 167 156 146 148 139 127 128 133 129 126 130 126 123 123 122 122 113 106 101 95 98 94 91 92 73
272 232 231 227 247 240 256 271 279 300 301 301 288 289 284 229 241 200 176 139 151 166 168 173 161 143 144 134 124 123 126 129 127 125 123 121 121 122 121 117 111 105 102 98 92 85 78 83 63